Showing default

VRSS-2, 42954

Orbit data source: Space-Track

VRSS-2, 42954 is a payload satellite owned by ABAE (VE) in SSO that was launched on Mon, 09 Oct 2017 UTC via a CHANG ZHENG 2D launch vehicle from the Jiuquan Satellite Launch Center, China (JSC). Payload-class satellites include a variety of spacecraft equipped with specific instruments for various scientific and technological missions. These include communications satellites like Starlink; space stations such as the ISS; scientific satellites like the Hubble; Earth observation satellites from companies like Planet Labs, Umbra, and HawkEye 360; GPS; miniature CubeSats for education and research; and military/defense satellites.

Loading next visibility...
Identifier
42954, 2017-060A
Orbit
SSO
Country
Flag of UnknownUnknown / VENZ
Related business
Manufacturer
DFH
Mission
Operational Civil Imaging
Bus & Motor
CAST-2000, AOCS
Mass
942 kg wet, ~900 kg dry
Launch date (UTC)
2017-10-09 (8 years ago)
Launch vehicle
CHANG ZHENG 2D
Launch site
Jiuquan Satellite Launch Center, China (JSC)
Object type
Payload
Rocket body
Debris
Shape & HBR
Box + 2 Pan, 4.0 m
Radar Cross Section
8.358 m², Large (>1 m²)

Expand to show TLE details & history
Last TLE update: 5 hours ago

TLE from 5 hours ago
0 VRSS-2
1 42954U 17060A   25308.87182554  .00001133  00000-0  15357-3 0  9998
2 42954  97.6841 351.3804 0018636 111.7469 248.5730 14.80660180435250
Epoch: 2025-11-04T20:55Z
TLE epoch observation values (Epoch: 2025-11-04T20:55:25.726Z)
Latitude
-0°
Longitude
-6.82942°
Altitude
635.061 km
Speed
7.538 km/s
True Right ascension
23h 25m 31s
True Declination
0° 00' 00"
Sunlit
Object was in full shadow at epoch
Visualization orbit readout
Latitude
Unknown
Longitude
Unknown
Altitude
Unknown
Speed
Unknown
Apparent Right ascension
Unknown
Apparent Declination
Unknown
Sunlit
N/A
Visualization observer readout
Local Sidereal Time
21:44:50
Azimuth
Unknown
Elevation
Unknown
Doppler factor
Unknown
Orbital elements
Apogee altitude
637.321 km
Perigee altitude
611.222 km
Semi-major axis
7,002.408 km
Eccentricity
0.00186
Inclination
97.6841°
RAAN
351.3804°
Arg. of periapsis
111.7469°
True anomaly
248.37438°
Mean anomaly
248.573°
Eccentric anomaly
248.47367°
Mean motion
3.70401 °/min
Orbital period
97.19 mins
BSTAR
0.00015357
Loading maneuver chart data...
Computing Atmospheric mass density...
Loading historical data...
Loading historical data...
Loading historical data...
Loading historical data...
Loading historical data...
Loading historical data...
Loading historical data...
Other satellites on launch #60 in the year 2017 (2017-10-09 UTC)

Documentation

Showing up to 5 results
|